Regional Weather Roundup
Issued by NWS Green Bay, WI

Home | Current Version | Previous Version | Graphics & Text | Print | Product List | Glossary Off
Versions: 1 2 3 4 5 6 7 8 9 10 11 12 13 14 15 16 17 18 19 20 21 22 23 24 25 26 27 28 29 30 31 32 33 34 35 36 37 38 39 40 41 42 43 44 45 46 47 48 49 50

000
ASUS43 KGRB 011459
RWRGRB

NORTH-CENTRAL AND NORTHEAST WISCONSIN REGIONAL WEATHER ROUNDUP
NATIONAL WEATHER SERVICE GREEN BAY WI
900 AM CST SUN MAR 01 2015

WIZ005-009-010>012-018-019-011600-
NORTH CENTRAL WISCONSIN

CITY           SKY/WX    TMP DP  RH WIND       PRES   REMARKS
IRONWOOD       PTSUNNY   16   9  73 SW12      30.10S WCI   3
MANITOWISH WTR NOT AVBL
ARBOR VITAE    NOT AVBL
EAGLE RIVER    NOT AVBL
LAND O LAKES   NOT AVBL
RHINELANDER    CLOUDY    10   5  80 SW9       30.14F HAZE    WCI  -3
PHILLIPS       NOT AVBL
ANTIGO         NOT AVBL
TOMAHAWK       NOT AVBL
MERRILL        NOT AVBL
$$

WIZ013-073-011600-
NORTHEAST WISCONSIN

CITY           SKY/WX    TMP DP  RH WIND       PRES   REMARKS
IRON MOUNTAIN  SUNNY     11   2  67 S3        30.17F
MARINETTE      MOSUNNY   16   7  67 W9        30.25F WCI   4
$$

WIZ017-030-035>037-045-011600-
CENTRAL WISCONSIN

CITY           SKY/WX    TMP DP  RH WIND       PRES   REMARKS
MEDFORD        NOT AVBL
WAUSAU         MOSUNNY   11   6  81 SW9       30.21S WCI  -2
MOSINEE        PTSUNNY   10   9  92 SW12      30.24S WCI  -4
MARSHFIELD     LGT SNOW  12   8  84 SW10      30.23S FOG     WCI  -1
WISC RAPIDS    CLOUDY    12   6  77 SW10      30.29R WCI  -1
STEVENS POINT  NOT AVBL
WAUPACA        NOT AVBL
SHAWANO        NOT AVBL
CLINTONVILLE   NOT AVBL
$$

WIZ038-039-048-051-011600-
FOX VALLEY

CITY           SKY/WX    TMP DP  RH WIND       PRES   REMARKS
NWS GREEN BAY  SUNNY     16  10  77 SW10      30.30F WCI   4
APPLETON       PTSUNNY   16  10  79 SW9       30.29F WCI   4
OSHKOSH        MOSUNNY   15  10  80 SW8       30.31S HAZE    WCI   4
FOND DU LAC    PTSUNNY   16  11  80 SW8       30.32S WCI   5
$$

WIZ022-050-052-011600-
EAST CENTRAL WISCONSIN

CITY           SKY/WX    TMP DP  RH WIND       PRES   REMARKS
STURGEON BAY   MOSUNNY   16   7  67 SW9       30.29F WCI   4
MANITOWOC      NOT AVBL
SHEBOYGAN      PTSUNNY   16  11  80 SW6       30.33S WCI   7
$$

LMZ563-521-522-541>543-011600-
LAKESHORE

STATION/POSITION TIME  TEMP    WIND        PRES    VSBY  WAVE
                       AIR SEA DIR/SP/G                  HT/PER
                 (UTC) (F)     (DEG/KT/KT) (MB)    (MI)  (FT/S)
SHEBOYGAN LKSHOR 1400   16     210/  8/  9 1028.9R
KEWAUNEE LKSHORE 1400          240/  5/ 10 1025.7S
NORTHPORT PIER   1400   14     220/  4/ 11 1025.4S
CHAMBERS ISLAND  1400   11     190/  6/ 12 1025.4F
MENOMINEE LKSHOR 1400          220/ 10     1025.8F
$$



USA.gov is the U.S. government's official web portal to all federal, state and local government web resources and services.